{"data":{"norad_id":31102,"epoch":"2026-05-25T03:42:38.615040Z","epoch_age_seconds":61613,"freshness":"FRESH","line1":"1 31102U 07009A   26145.15461360 -.00000003  00000+0  00000+0 0  9999","line2":"2 31102   1.1401  84.1050 0002728 338.4414 117.1501  1.00272489 46335","mean_motion":1.00272489,"eccentricity":0.0002728,"inclination_deg":1.1401,"raan_deg":84.105,"arg_perigee_deg":338.4414,"mean_anomaly_deg":117.1501,"bstar":0,"rev_number":4633,"period_min":1436.0868213813,"perigee_km":35774.895120549,"apogee_km":35797.90009063,"semimajor_km":42164.534605589,"source":"CELESTRAK","updated_at":"2026-05-25T13:38:13.854312Z"}}